Tracking 35237 objects as of 6-Sep-2026
HD Live streaming from Space Station
objects crossing your sky now

STARLINK-35423

Track STARLINK-35423 now!
10-day predictions
STARLINK-35423 is classified as:


NORAD ID: 65873
Int'l Code: 2025-223V
Launch date: October 3, 2025
Source: United States (US)
Launch site: AIR FORCE WESTERN TEST RANGE (AFWTR)
Your satellite tracking list
Your tracking list is empty




NASA's NSSDC Master Catalog

Two Line Element Set (TLE):
1 65873U 25223V   26248.94948742  .00009931  00000-0  30464-3 0  9994
2 65873  53.1567 173.3834 0001107  99.9243 260.1884 15.34400898 51852
Source of the keplerian elements: AFSPC